This is the latest recevied weather packets stored in our database for station/object KD4UFD. If no packets are shown the sender has not sent any weather packets the latest 10 day(s).
| Time | Temp. | Humidity | Pressure | Rain* | Wind** | Luminosity | Snow |
|---|---|---|---|---|---|---|---|
| 1777463656 | 17.22° C | 93% | 1012.6 hPa | 0 mm | - | 50 W/m² | - |
| 1777463350 | 17.22° C | 93% | 1012.6 hPa | 0 mm | - | 49 W/m² | - |
| 1777463048 | 17.22° C | 93% | 1012.4 hPa | 0 mm | - | 39 W/m² | - |
| 1777462743 | 17.22° C | 92% | 1012.5 hPa | 0 mm | - | 23 W/m² | - |
| 1777462439 | 17.22° C | 92% | 1012.3 hPa | 0 mm | - | 28 W/m² | - |
| 1777462135 | 17.22° C | 92% | 1012.3 hPa | 0 mm | - | 21 W/m² | - |
| 1777461832 | 17.22° C | 92% | 1012.2 hPa | 0 mm | - | 20 W/m² | - |
| 1777461528 | 17.22° C | 92% | 1012.4 hPa | 0 mm | - | 10 W/m² | - |
| 1777461224 | 17.22° C | 92% | 1012.4 hPa | 0 mm | - | 6 W/m² | - |
| 1777460919 | 17.22° C | 92% | 1012.4 hPa | 0 mm | - | 3 W/m² | - |
| 1777460615 | 17.78° C | 92% | 1012.2 hPa | 0 mm | - | 3 W/m² | - |
| 1777460311 | 17.22° C | 92% | 1012.1 hPa | 0 mm | - | 1 W/m² | - |
| 1777460008 | 17.22° C | 92% | 1012.1 hPa | 0 mm | - | 0 W/m² | - |
| 1777459704 | 17.78° C | 92% | 1012.2 hPa | 0 mm | - | 0 W/m² | - |
| 1777459401 | 17.78° C | 92% | 1012.1 hPa | 0 mm | - | 0 W/m² | - |
| 1777459099 | 17.78° C | 92% | 1011.9 hPa | 0 mm | - | 0 W/m² | - |
| 1777458797 | 17.78° C | 92% | 1012 hPa | 0 mm | - | 0 W/m² | - |
| 1777458492 | 17.78° C | 91% | 1011.9 hPa | 0 mm | - | 0 W/m² | - |
| 1777458190 | 17.78° C | 91% | 1012.3 hPa | 0 mm | - | 0 W/m² | - |
| 1777457885 | 17.78° C | 91% | 1011.9 hPa | 0 mm | - | 0 W/m² | - |
| 1777457581 | 17.78° C | 91% | 1012 hPa | 0 mm | - | 0 W/m² | - |
| 1777457276 | 17.78° C | 91% | 1011.8 hPa | 0 mm | - | 0 W/m² | - |
| 1777456971 | 17.78° C | 91% | 1011.8 hPa | 0 mm | - | 0 W/m² | - |
| 1777456667 | 17.78° C | 91% | 1011.9 hPa | 0 mm | - | 0 W/m² | - |
| 1777456362 | 17.78° C | 90% | 1011.7 hPa | 0 mm | - | 0 W/m² | - |
* Rain latest hour (hover to see other rain measurements)
** Current wind speed in m/s (hover to see current wind gust speed)